Sunday, January 20, 2019, 2:07 AM EST
Back to Local

KBML, Berlin Municipal Airport

Location: Milan, NH, United States Lat: 44.583
Local Time: 2:07 AM EST ( 7:07 GMT) Lon: -71.183
Time Zone: US/Eastern Elev: 1158 ft

Show me the last for .
Show Decoded

2019-01-20 01:52 METAR KBML 200652Z AUTO 33005KT 6SM -SN OVC050 M12/M15 A3004 RMK AO2 SLP197
                 P0001 T11221150 =
2019-01-20 01:45 METAR KBML 200645Z AUTO 34006KT 4SM -SN OVC041 M12/M15 A3004 RMK AO2 P0001
                 T11221150 =
2019-01-20 01:33 METAR KBML 200633Z AUTO 34005KT 2SM -SN OVC030 M12/M15 A3005 RMK AO2 PRESFR
                 P0001 T11221150 =
2019-01-20 01:14 METAR KBML 200614Z AUTO 35005KT 1 1/2SM -SN BR OVC020 M12/M14 A3008 RMK AO2
                 P0000 T11221144 =
2019-01-20 00:52 METAR KBML 200552Z AUTO 01003KT 1 1/4SM -SN OVC023 M12/M14 A3009 RMK AO2 SLP217
                 P0000 60001 T11171144 11117 21128 58021 =
2019-01-20 00:42 METAR KBML 200542Z AUTO 00000KT 1 3/4SM -SN OVC029 M12/M14 A3010 RMK AO2 P0000
                 T11171144 =
2019-01-20 00:29 METAR KBML 200529Z AUTO 00000KT 2 1/2SM -SN OVC035 M12/M14 A3011 RMK AO2 P0000
                 T11171144 =
2019-01-19 23:59 METAR KBML 200459Z AUTO 00000KT 3SM -SN OVC033 M12/M14 A3012 RMK AO2 P0000
                 T11171144 =
2019-01-19 23:52 METAR KBML 200452Z AUTO 00000KT 2 1/2SM -SN OVC031 M12/M14 A3013 RMK AO2 SNB05
                 SLP228 P0000 T11171144 410671172 =
2019-01-19 23:37 METAR KBML 200437Z AUTO 10003KT 2SM -SN OVC027 M12/M14 A3013 RMK AO2 SNB05 P0000
                 T11171144 =
2019-01-19 23:27 METAR KBML 200427Z AUTO 12004KT 1 3/4SM -SN OVC023 M12/M14 A3014 RMK AO2 SNB05
                 P0000 T11171144 =
2019-01-19 23:15 METAR KBML 200415Z AUTO 15004KT 2 1/2SM -SN OVC029 M12/M15 A3014 RMK AO2 SNB05
                 P0000 T11221150 =
2019-01-19 22:52 METAR KBML 200352Z AUTO 00000KT 10SM BKN055 OVC070 M13/M16 A3015 RMK AO2 SNE15
                 SLP238 P0000 T11281156 =
2019-01-19 22:02 METAR KBML 200302Z AUTO 34003KT 3SM -SN BR OVC033 M13/M15 A3016 RMK AO2 P0000
                 T11281150 =
2019-01-19 21:52 METAR KBML 200252Z AUTO 34004KT 2SM -SN BR OVC027 M13/M15 A3016 RMK AO2 SLP242
                 P0001 60001 T11281150 58014 =
2019-01-19 21:32 METAR KBML 200232Z AUTO 33004KT 2SM -SN BR OVC026 M13/M15 A3017 RMK AO2 P0001
                 T11281150 =
2019-01-19 20:52 METAR KBML 200152Z AUTO 34003KT 1 3/4SM -SN OVC023 M13/M16 A3019 RMK AO2 SLP253
                 P0000 T11281156 =
2019-01-19 20:35 METAR KBML 200135Z AUTO 00000KT 2SM -SN BR OVC029 M13/M15 A3019 RMK AO2 P0000
                 T11281150 =
2019-01-19 19:52 METAR KBML 200052Z AUTO 00000KT 2 1/2SM -SN BR OVC035 M13/M15 A3020 RMK AO2
                 SLP257 P0000 T11281150 =
2019-01-19 19:26 METAR KBML 200026Z AUTO 33003KT 2 1/2SM -SN BR OVC037 M13/M15 A3020 RMK AO2
                 P0000 T11281150 =
2019-01-19 19:04 METAR KBML 200004Z AUTO 34003KT 3SM -SN BR OVC037 M13/M15 A3020 RMK AO2 P0000
                 T11281150 =
2019-01-19 18:52 METAR KBML 192352Z AUTO 32003KT 2 1/2SM -SN BR OVC033 M13/M15 A3020 RMK AO2
                 SLP257 P0001 60003 T11281150 11106 21128 58011 =
2019-01-19 18:41 METAR KBML 192341Z AUTO 00000KT 2SM -SN BR OVC027 M13/M15 A3020 RMK AO2 P0001
                 T11281150 =
2019-01-19 18:27 METAR KBML 192327Z AUTO 00000KT 1 3/4SM -SN BR OVC021 M13/M15 A3020 RMK AO2
                 P0001 T11281150 =
2019-01-19 18:17 METAR KBML 192317Z AUTO 00000KT 1 1/4SM -SN BR OVC017 M13/M15 A3021 RMK AO2
                 P0001 T11281150 =
2019-01-19 17:52 METAR KBML 192252Z AUTO 32003KT 1SM -SN BR VV014 M13/M15 A3022 RMK AO2 SLP262
                 P0002 T11281150 =
2019-01-19 17:09 METAR KBML 192209Z AUTO 34003KT 1SM -SN VV019 M12/M15 A3023 RMK AO2 P0000
                 T11221150 =
2019-01-19 16:52 METAR KBML 192152Z AUTO 36003KT 1 3/4SM -SN OVC024 M12/M15 A3023 RMK AO2 SNB2055
                 SLP267 P0000 T11221150 =
2019-01-19 16:45 METAR KBML 192145Z AUTO 36004KT 1 3/4SM -SN OVC024 M12/M15 A3023 RMK AO2 SNB2055
                 P0000 T11221150 =
2019-01-19 16:19 METAR KBML 192119Z AUTO 00000KT 1SM -SN OVC022 M12/M16 A3023 RMK AO2 SNB2055
                 P0000 T11171161 =
2019-01-19 16:11 METAR KBML 192111Z AUTO 00000KT 1 1/2SM -SN OVC024 M12/M17 A3024 RMK AO2 VIS 1V3
                 SNB2055 P0000 T11171172 =
2019-01-19 16:04 METAR KBML 192104Z AUTO 00000KT 2SM -SN OVC028 M11/M18 A3024 RMK AO2 SNB2055
                 P0000 T11111183 =
2019-01-19 15:52 METAR KBML 192052Z AUTO 36004KT 9SM OVC038 M11/M19 A3024 RMK AO2 SLP265
                 T11111194 53004 =
2019-01-19 14:52 METAR KBML 191952Z AUTO 34003KT 10SM OVC060 M11/M22 A3021 RMK AO2 SLP256
                 T11061217 =
2019-01-19 13:52 METAR KBML 191852Z AUTO 34003KT 10SM OVC080 M11/M22 A3020 RMK AO2 SLP252
                 T11111217 =
2019-01-19 12:52 METAR KBML 191752Z AUTO 34003KT 10SM OVC085 M11/M21 A3022 RMK AO2 SLP259
                 T11111211 11111 21172 58022 =
2019-01-19 11:52 METAR KBML 191652Z AUTO 34003KT 10SM OVC095 M12/M21 A3027 RMK AO2 SLP275
                 T11221206 =
2019-01-19 10:52 METAR KBML 191552Z AUTO 00000KT 10SM OVC100 M13/M21 A3029 RMK AO2 SLP283
                 T11331206 =
2019-01-19 09:52 METAR KBML 191452Z AUTO 02003KT 10SM BKN110 M15/M21 A3029 RMK AO2 SLP282
                 T11501206 51021 =
2019-01-19 08:52 METAR KBML 191352Z AUTO 35005KT 10SM CLR M17/M21 A3028 RMK AO2 SLP280 T11671211
                 =
2019-01-19 07:52 METAR KBML 191252Z AUTO 34003KT 10SM CLR M17/M21 A3026 RMK AO2 SLP271 T11671211
                 =
2019-01-19 06:52 METAR KBML 191152Z AUTO 35004KT 10SM CLR M16/M21 A3022 RMK AO2 SLP259 T11611206
                 11078 21161 53025 =
2019-01-19 05:52 METAR KBML 191052Z AUTO 32004KT 10SM CLR M15/M19 A3020 RMK AO2 SLP250 T11501189
                 =
2019-01-19 04:52 METAR KBML 190952Z AUTO 35006KT 10SM SCT021 M13/M17 A3017 RMK AO2 SLP239
                 T11331172 =
2019-01-19 03:52 METAR KBML 190852Z AUTO 00000KT 10SM OVC025 M12/M16 A3015 RMK AO2 SLP230
                 T11171156 53024 =
2019-01-19 02:52 METAR KBML 190752Z AUTO 36004KT 10SM BKN023 OVC028 M11/M15 A3012 RMK AO2 SLP222
                 T11111150 =

Support USWX by starting your Amazon purchase here.